Gallup, NM

11:26 PM MDT on April 26, 2018 (GMT -0600)
Gallup Municipal

Weather History for KGUP - August, 2013

Change the Weather History Date:

Saturday, August 3, 2013

  Actual Average Record
Temperature  
Mean Temperature 68 °F -  
Max Temperature 82 °F 84 °F 93 °F (1977)
Min Temperature 55 °F 52 °F 42 °F (1998)
Cooling Degree Days 4    
Growing Degree Days 18 (Base 50)    
Moisture  
Dew Point 54 °F    
Average Humidity 65    
Maximum Humidity 100    
Minimum Humidity 30    
Precipitation  
Precipitation 0.01 in - - ()
Sea Level Pressure  
Sea Level Pressure 29.85 in    
Wind  
Wind Speed 3 mph (SW)    
Max Wind Speed 13 mph    
Max Gust Speed 16 mph    
Visibility 10 miles    
Events      
Averages and records for this station are not official NWS values.
T = Trace of Precipitation, MM = Missing Value Source: NWS Daily Summary

Daily Weather History Graph

Daily Weather History Graph

Search for Another Location

Airport or City:

Astronomy

Aug. 03, 2013 Rise Set
Actual Time 6:25 AM MDT 8:16 PM MDT
Civil Twilight 5:57 AM MDT 8:44 PM MDT
Nautical Twilight 5:23 AM MDT 9:18 PM MDT
Astronomical Twilight 4:47 AM MDT 9:54 PM MDT
Moon 3:38 AM MDT (8/3) 6:00 PM MDT (8/3)
Length of Visible Light 14h 47m
Length of Day
13h 51m
Waning Crescent, 9% of the Moon is Illuminated
Aug 3
Waning Crescent
Aug 6
New
Aug 14
First Quarter
Aug 20
Full
Aug 28
Last Quarter

Hourly Weather History & Observations

Time (MDT) Temp. Dew Point Humidity Pressure Visibility Wind Dir Wind Speed Gust Speed Precip Events Conditions
12:53 AM 59.0 °F 55.9 °F 90% 29.79 in 10.0 mi NNW 4.6 mph - N/A   Clear
1:53 AM 57.0 °F 55.9 °F 96% 29.78 in 10.0 mi ENE 4.6 mph - N/A   Scattered Clouds
2:53 AM 57.9 °F 55.0 °F 90% 29.81 in 10.0 mi Calm Calm - N/A   Mostly Cloudy
3:53 AM 57.9 °F 55.9 °F 93% 29.84 in 10.0 mi Calm Calm - N/A   Overcast
4:53 AM 57.0 °F 55.9 °F 96% 29.86 in 10.0 mi Calm Calm - N/A   Clear
5:53 AM 55.9 °F 55.0 °F 97% 29.97 in 10.0 mi Calm Calm - N/A   Scattered Clouds
6:53 AM 55.9 °F 55.9 °F 100% 29.98 in 7.0 mi Calm Calm - 0.01 in   Overcast
7:53 AM 57.9 °F 57.0 °F 97% 30.00 in 10.0 mi Calm Calm - N/A   Overcast
8:53 AM 62.1 °F 57.9 °F 86% 29.98 in 10.0 mi WSW 3.5 mph - N/A   Scattered Clouds
9:53 AM 66.0 °F 57.0 °F 73% 29.95 in 10.0 mi Calm Calm - N/A   Clear
10:53 AM 72.0 °F 57.0 °F 59% 29.90 in 10.0 mi Calm Calm - N/A   Clear
11:53 AM 73.9 °F 54.0 °F 50% 29.88 in 10.0 mi Calm Calm - N/A   Clear
12:53 PM 77.0 °F 51.1 °F 40% 29.86 in 10.0 mi Variable 3.5 mph - N/A   Clear
1:53 PM 79.0 °F 50.0 °F 36% 29.84 in 10.0 mi Variable 3.5 mph - N/A   Clear
2:53 PM 82.0 °F 50.0 °F 33% 29.79 in 10.0 mi South 8.1 mph - N/A   Clear
3:53 PM 82.0 °F 52.0 °F 35% 29.78 in 10.0 mi SW 9.2 mph 16.1 mph N/A   Clear
4:53 PM 81.0 °F 50.0 °F 34% 29.79 in 10.0 mi WSW 10.4 mph - N/A   Partly Cloudy
5:53 PM 82.0 °F 48.0 °F 30% 29.78 in 10.0 mi West 12.7 mph - N/A   Clear
6:53 PM 78.1 °F 51.1 °F 39% 29.80 in 10.0 mi WNW 12.7 mph - N/A   Clear
7:53 PM 75.0 °F 50.0 °F 41% 29.82 in 10.0 mi Calm Calm - N/A   Clear
8:53 PM 71.1 °F 53.1 °F 53% 29.83 in 10.0 mi Calm Calm - N/A   Clear
9:53 PM 66.9 °F 54.0 °F 63% 29.84 in 10.0 mi SSW 3.5 mph - N/A   Clear
10:53 PM 66.9 °F 54.0 °F 63% 29.83 in 10.0 mi South 4.6 mph - N/A   Clear
11:53 PM 68.0 °F 55.0 °F 63% 29.81 in 10.0 mi SSE 11.5 mph - N/A   Partly Cloudy